Flag for Australia Weather past 2 weeks in Adelaide, South Australia, Australia

Now
68 °F

Clear.


Feels Like: 68 °F
Forecast: 61 / 84 °F
Wind: 15 mph from Northeast

Location: Adelaide Airport


UV Index: 3 (Moderate)

Visibility: 10 mi


Pressure: 29.92 "Hg

Humidity: 40%

Dew point: 43 °F

Location of AdelaideLocation

Historic Weather in Adelaide

°F

Adelaide temperature yesterday

Maximum temperature yesterday: 70 °F (at 2:30 PM)
Minimum temperature yesterday: 50 °F (at 5:30 AM)
Average temperature yesterday: 61 °F

Past Weeks' High & Low Weather Summary

 TemperatureHumidityPressure
High81 °F (Apr 7, 11:30 AM)100% (Apr 8, 6:00 PM)30.24 "Hg (Apr 8, 6:00 PM)
Low48 °F (Apr 6, 6:30 AM)26% (Apr 7, 11:30 AM)29.83 "Hg (Apr 10, 2:00 AM)
Average64 °F66%30.07 "Hg
* Reported Apr 6 4:30 AM — Apr 21 4:30 AM, Adelaide, Weather by CustomWeather, © 2014

Note: Actual official high and low records may vary slightly from our data, if they occured in-between our weather recording intervals... More about our weather records

Advertising

Historic Weather Conditions — Data for Previous 24 hours

 ConditionsComfort  
Time TempWeatherWind HumidityBarometerVisibility
4:30 AM
Apr 21
68 °FClear.15 mph40%29.92 "Hg10 mi
4:00 AM68 °FClear.17 mph40%29.92 "Hg10 mi
3:30 AM68 °FClear.13 mph40%29.95 "Hg10 mi
3:00 AM68 °FClear.14 mph40%29.95 "Hg10 mi
2:30 AM68 °FClear.15 mph40%29.95 "Hg10 mi
2:00 AM66 °FClear.13 mph46%29.95 "Hg10 mi
1:30 AM66 °FClear.10 mph49%29.98 "Hg10 mi
1:00 AM64 °FClear.13 mph52%29.98 "Hg10 mi
12:30 AM64 °FClear.14 mph56%29.98 "Hg10 mi
12:00 AM63 °FClear.12 mph59%30.01 "Hg10 mi
11:30 PM
Apr 20
61 °FClear.8 mph63%30.01 "Hg10 mi
11:00 PM61 °FClear.7 mph68%30.01 "Hg10 mi
10:30 PM59 °FClear.5 mph77%30.04 "Hg10 mi
10:00 PM59 °FClear.7 mph77%30.04 "Hg10 mi
9:30 PM59 °FClear.3 mph77%30.04 "Hg10 mi
9:00 PM59 °FClear.5 mph82%30.04 "Hg10 mi
8:30 PM61 °FClear.No wind77%30.04 "Hg10 mi
8:00 PM61 °FClear.No wind77%30.04 "Hg10 mi
7:30 PM63 °FClear.3 mph73%30.07 "Hg10 mi
7:00 PM63 °FClear.3 mph73%30.04 "Hg10 mi
6:30 PM64 °FClear.7 mph68%30.07 "Hg10 mi
6:00 PM64 °FClear.6 mph68%30.04 "Hg10 mi
5:30 PM66 °FClear.6 mph60%30.04 "Hg10 mi
5:00 PM66 °FBroken clouds.5 mph56%30.01 "HgN/A
4:30 PM66 °FPartly sunny.7 mph52%30.04 "HgN/A
4:00 PM68 °FPartly sunny.7 mph46%30.04 "HgN/A
3:30 PM70 °FPartly sunny.6 mph43%30.04 "HgN/A
3:00 PM70 °FPartly sunny.6 mph43%30.04 "HgN/A
2:30 PM70 °FPartly sunny.6 mph40%30.04 "HgN/A
2:00 PM68 °FPartly sunny.6 mph43%30.04 "HgN/A
1:30 PM68 °FPassing clouds.9 mph40%30.04 "HgN/A
1:00 PM68 °FPassing clouds.9 mph43%30.04 "HgN/A
12:30 PM68 °FPassing clouds.10 mph40%30.07 "HgN/A
12:00 PM66 °FPassing clouds.10 mph40%30.07 "HgN/A
11:30 AM66 °FPassing clouds.10 mph46%30.07 "HgN/A
11:00 AM68 °FPassing clouds.8 mph46%30.07 "HgN/A
10:30 AM68 °FPassing clouds.5 mph43%30.07 "HgN/A
10:00 AM66 °FPassing clouds.6 mph49%30.09 "HgN/A
9:30 AM64 °FPassing clouds.5 mph52%30.09 "HgN/A
9:00 AM63 °FPassing clouds.6 mph52%30.09 "HgN/A
8:30 AM61 °FPassing clouds.8 mph52%30.09 "HgN/A
8:00 AM55 °FPassing clouds.5 mph67%30.07 "HgN/A
7:30 AM52 °FPassing clouds.5 mph77%30.07 "HgN/A
7:00 AM50 °FPassing clouds.6 mph76%30.07 "HgN/A
6:30 AM50 °FPassing clouds.5 mph76%30.07 "HgN/A
6:00 AM50 °FClear.6 mph76%30.04 "Hg10 mi
5:30 AM50 °FClear.5 mph76%30.04 "Hg10 mi
5:00 AM52 °FClear.5 mph72%30.04 "Hg10 mi
Weather by CustomWeather, © 2014

See weather overview